Location: Ramillies
(50.6368°N, 4.9145°E)
Time: 13:16:14
(UTC+02:00)

ISS - Visible Passes

Search period start: 29 May 2017 00:00
Search period end: 08 June 2017 00:00
Orbit: 402 x 408 km, 51.6° (Epoch: 29 May)

Date Brightness Start Highest point End Pass type
(mag) Time Alt. Az. Time Alt. Az. Time Alt. Az.
29 May -3.8 00:50:02 10° W 00:53:20 79° N 00:56:00 15° E visible
29 May -2.6 02:26:38 10° W 02:28:36 28° WSW 02:28:36 28° WSW visible
29 May -3.9 22:21:24 10° WSW 22:24:42 78° SSE 22:28:00 10° ENE visible
29 May -3.6 23:57:59 10° W 00:01:16 72° N 00:04:35 10° E visible
30 May -3.8 01:34:31 10° WNW 01:37:45 58° SSW 01:37:45 58° SSW visible
30 May -3.6 23:05:53 10° W 23:09:11 73° N 23:12:29 10° E visible
31 May -4.0 00:42:27 10° WNW 00:45:45 79° SSW 00:47:06 33° ESE visible
31 May -1.4 02:19:16 10° W 02:19:43 12° W 02:19:43 12° W visible
31 May -3.8 23:50:23 10° WNW 23:53:41 84° N 23:56:31 13° E visible
01 Jun -2.6 01:27:00 10° W 01:29:09 28° WSW 01:29:09 28° WSW visible
01 Jun -3.6 22:58:16 10° W 23:01:35 74° N 23:04:53 10° E visible
02 Jun -3.6 00:34:50 10° W 00:38:03 50° SSW 00:38:38 43° SSE visible
02 Jun -3.9 23:42:43 10° WNW 23:46:01 71° SSW 23:48:09 20° ESE visible
03 Jun -1.7 01:19:41 10° W 01:20:48 16° WSW 01:20:48 16° WSW visible
03 Jun -3.8 22:50:36 10° WNW 22:53:55 90° NE 22:57:13 10° ESE visible
04 Jun -2.8 00:27:16 10° W 00:30:11 29° SSW 00:30:21 29° SSW visible
04 Jun -3.3 23:35:03 10° W 23:38:12 43° SSW 23:39:55 22° SE visible
05 Jun -3.7 22:42:52 10° WNW 22:46:09 63° SSW 22:49:24 10° ESE visible
06 Jun -1.9 00:20:01 10° W 00:22:10 16° SW 00:22:11 16° SW visible
06 Jun -2.4 23:27:28 10° W 23:30:14 25° SW 23:31:49 17° S visible
07 Jun -3.0 22:35:08 10° W 22:38:13 37° SSW 22:41:18 10° SE visible
